Weather History for KVGT - January, 2013

Change the Weather History Date:

Sunday, January 13, 2013

  Actual Average Record
Temperature  
Mean Temperature 31 °F -  
Max Temperature 37 °F 54 °F 71 °F (1953)
Min Temperature 25 °F 35 °F 18 °F (1961)
Degree Days  
Heating Degree Days 34    
Moisture  
Dew Point 1 °F    
Average Humidity 29    
Maximum Humidity 39    
Minimum Humidity 20    
Precipitation  
Precipitation 0.00 in - - ()
Sea Level Pressure  
Sea Level Pressure 30.24 in    
Wind  
Wind Speed 6 mph (NNE)    
Max Wind Speed 17 mph    
Max Gust Speed 26 mph    
Visibility 10 miles    
Events      
Averages and records for this station are not official NWS values.
T = Trace of Precipitation, MM = Missing Value Source: NWS Daily Summary

Daily Weather History Graph

Daily Weather History Graph

Search for Another Location

Airport or City:

Trip Planner

Search our weather history database for the weather conditions in past years. The results will help you decide how hot, cold, wet, or windy it might be!

Date:

Astronomy

Jan. 13, 2013 Rise Set
Actual Time 6:51 AM PST 4:47 PM PST
Civil Twilight 6:23 AM PST 5:16 PM PST
Nautical Twilight 5:51 AM PST 5:47 PM PST
Astronomical Twilight 5:20 AM PST 6:18 PM PST
Moon 7:57 AM PST (1/13) 7:25 PM PST (1/13)
Length of Visible Light 10h 52m
Length of Day
9h 56m
Waxing Crescent, 6% of the Moon is Illuminated
Jan 13
Waxing Crescent
Jan 18
First Quarter
Jan 26
Full
Feb 3
Last Quarter
Feb 9
New

Hourly Weather History & Observations

Time (PST) Temp. Windchill Dew Point Humidity Pressure Visibility Wind Dir Wind Speed Gust Speed Precip Events Conditions
12:53 AM 28.9 °F 22.8 °F 3.0 °F 33% 30.23 in 10.0 mi NNW 5.8 mph - N/A   Clear
1:53 AM 27.0 °F 21.6 °F 3.0 °F 36% 30.24 in 10.0 mi NW 4.6 mph - N/A   Clear
2:53 AM 27.0 °F 20.5 °F 3.0 °F 36% 30.24 in 10.0 mi NW 5.8 mph - N/A   Clear
3:53 AM 26.1 °F 18.4 °F 3.0 °F 37% 30.23 in 10.0 mi NNW 6.9 mph - N/A   Clear
4:53 AM 27.0 °F 17.3 °F 1.9 °F 34% 30.22 in 10.0 mi NNW 10.4 mph - N/A   Clear
5:53 AM 25.0 °F 17.1 °F 3.0 °F 39% 30.24 in 10.0 mi NNW 6.9 mph - N/A   Clear
6:53 AM 25.0 °F 18.1 °F 3.0 °F 39% 30.27 in 10.0 mi WSW 5.8 mph - N/A   Clear
7:53 AM 26.1 °F 19.4 °F 3.0 °F 37% 30.29 in 10.0 mi NW 5.8 mph - N/A   Clear
8:53 AM 30.0 °F 24.1 °F 3.0 °F 32% 30.28 in 10.0 mi NW 5.8 mph - N/A   Clear
9:53 AM 32.0 °F 28.7 °F 1.9 °F 28% 30.27 in 10.0 mi NE 3.5 mph - N/A   Clear
10:53 AM 32.0 °F - 3.0 °F 29% 30.25 in 10.0 mi Calm Calm - N/A   Clear
11:53 AM 34.0 °F 28.8 °F 1.9 °F 26% 30.22 in 10.0 mi SE 5.8 mph - N/A   Clear
12:53 PM 36.0 °F 31.1 °F 1.0 °F 23% 30.20 in 10.0 mi ESE 5.8 mph - N/A   Clear
1:53 PM 36.0 °F 32.1 °F -0.0 °F 22% 30.19 in 10.0 mi SE 4.6 mph - N/A   Clear
2:53 PM 37.0 °F 31.6 °F -0.9 °F 20% 30.19 in 10.0 mi SSE 6.9 mph - N/A   Clear
3:53 PM 37.0 °F 31.0 °F -0.9 °F 20% 30.20 in 10.0 mi East 8.1 mph - N/A   Clear
4:53 PM 36.0 °F 28.5 °F -2.0 °F 20% 30.21 in 10.0 mi East 10.4 mph - N/A   Clear
5:53 PM 35.1 °F 29.3 °F -2.9 °F 20% 30.23 in 10.0 mi ENE 6.9 mph - N/A   Mostly Cloudy
6:53 PM 34.0 °F - -2.0 °F 22% 30.24 in 10.0 mi Calm Calm - N/A   Partly Cloudy
7:53 PM 30.9 °F 23.5 °F -2.9 °F 23% 30.26 in 10.0 mi East 8.1 mph - N/A   Overcast
8:53 PM 30.9 °F 23.5 °F 1.0 °F 28% 30.27 in 10.0 mi NE 8.1 mph - N/A   Mostly Cloudy
9:53 PM 30.0 °F 22.4 °F 5.0 °F 35% 30.29 in 10.0 mi NNE 8.1 mph - N/A   Mostly Cloudy
11:53 PM 28.0 °F 15.7 °F -2.0 °F 27% 30.31 in 10.0 mi NNW 17.3 mph 26.5 mph N/A   Clear